Regional Weather Roundup
Issued by NWS

Home | Current Version | Previous Version | Graphics & Text | Print | Product List | Glossary On
Versions: 1 2 3 4 5 6 7 8 9 10 11 12 13 14 15 16 17 18 19 20 21 22 23 24 25 26 27 28 29 30 31 32 33 34 35 36 37 38 39 40 41 42 43 44 45 46 47 48 49 50
844
ASUS43 KOAX 280602
RWRNE

WEATHER ROUNDUP FOR NEBRASKA
NATIONAL WEATHER SERVICE OMAHA NE
100 AM CDT SUN MAY 28 2017

NOTES: SATELLITE DATA IS BEING USED TO AUGMENT CLOUD COVER ABOVE
       12000 FEET.
       "FAIR" INDICATES FEW OR NO CLOUDS BELOW 12,000 FEET WITH NO
       SIGNIFICANT WEATHER AND/OR OBSTRUCTIONS TO VISIBILITY.

  * THESE STATIONS DO NOT REPORT WEATHER SUCH AS RAIN...SNOW OR FOG.

NEZ001>004-019>022-054>056-280700-
NEBRASKA PANHANDLE

CITY           SKY/WX    TMP DP  RH WIND       PRES   REMARKS
SCOTTSBLUFF    CLEAR     46  41  82 NW5       30.15S
6HR MIN TEMP:  46; 6HR MAX TEMP:  65; 6HR PCP:  0.02;

ALLIANCE       CLEAR     43  40  89 W10       30.11R
6HR MIN TEMP:  42; 6HR MAX TEMP:  62;

CHADRON        CLOUDY    49  42  77 S3        30.09S
6HR MIN TEMP:  48; 6HR MAX TEMP:  64;

GORDON         FAIR      49  44  81 W5        30.07S
6HR MIN TEMP:  49; 6HR MAX TEMP:  65;

KIMBALL        CLEAR     45  38  78 W8        30.20S
SIDNEY         CLEAR     42  40  92 W8        30.17R
6HR MIN TEMP:  41; 6HR MAX TEMP:  60;

$$

NEZ057>060-069>072-079>082-280700-
SOUTHWEST NEBRASKA

CITY           SKY/WX    TMP DP  RH WIND       PRES   REMARKS
NORTH PLATTE   CLEAR     47  46  97 W5        30.08S FOG
6HR MIN TEMP:  44; 6HR MAX TEMP:  63;

IMPERIAL       CLEAR     51  43  74 W7        30.12S
6HR MIN TEMP:  51; 6HR MAX TEMP:  63;

LEXINGTON      CLEAR     50  47  90 W5        30.05S
MCCOOK         CLEAR     52  51  97 SW5       30.08F
6HR MIN TEMP:  51; 6HR MAX TEMP:  66;

OGALLALA       CLEAR     46  43  90 W5        30.11S
$$

NEZ005>010-023>029-035>040-094-280700-
NORTH CENTRAL NEBRASKA

CITY           SKY/WX    TMP DP  RH WIND       PRES   REMARKS
VALENTINE      PTCLDY    55  45  68 W7        30.01S
6HR MIN TEMP:  54; 6HR MAX TEMP:  68; 6HR PCP: TRACE;

AINSWORTH      CLOUDY    57  47  69 W9        30.01R
BROKEN BOW     PTCLDY    54  50  86 W12       30.03S
6HR MIN TEMP:  52; 6HR MAX TEMP:  61;

O`NEILL        MOCLDY    55  47  74 SW9       29.96F
ORD            CLEAR     52  48  86 CALM      29.99S
6HR MIN TEMP:  51; 6HR MAX TEMP:  62;

THEDFORD       CLEAR     50  44  79 W8        30.05S
$$

NEZ041-046>049-061>064-073>077-083>087-280700-
SOUTH CENTRAL NEBRASKA

CITY           SKY/WX    TMP DP  RH WIND       PRES   REMARKS
GRAND ISLAND   CLOUDY    53  51  93 W8        30.00F
6HR MIN TEMP:  53; 6HR MAX TEMP:  66; 6HR PCP: TRACE;

AURORA         MOCLDY    55  51  88 NW7       29.99S
HASTINGS       PTCLDY    56  50  80 NW10      30.01F
6HR MIN TEMP:  56; 6HR MAX TEMP:  68;

HEBRON         CLOUDY    62  55  77 NW8       29.98F
HOLDREGE       CLEAR     53  49  87 W5        30.04S
KEARNEY *      CLEAR     54  48  82 W9        30.03S
YORK           MOCLDY    57  52  82 NW7       29.97F
$$

NEZ011>018-030>034-042>045-280700-
NORTHEAST NEBRASKA

CITY           SKY/WX    TMP DP  RH WIND       PRES   REMARKS
NORFOLK        CLEAR     52  48  86 W6        29.94F
6HR MIN TEMP:  50; 6HR MAX TEMP:  65;

ALBION         CLEAR     55  50  82 NW5       29.97F
BLAIR          MOCLDY    61  52  73 NW7       29.93F
FREMONT        CLEAR     58  51  77 CALM      29.96S
TEKAMAH        CLEAR     59  51  75 CALM      29.93S
6HR MIN TEMP:  58; 6HR MAX TEMP:  71;

WAYNE          CLEAR     50  50  98 CALM      29.93F
$$

NEZ050>053-065>068-078-088>093-280700-
SOUTHEAST NEBRASKA

CITY           SKY/WX    TMP DP  RH WIND       PRES   REMARKS
LINCOLN        CLEAR     62  52  69 N9        29.96S
6HR MIN TEMP:  62; 6HR MAX TEMP:  72;

OMAHA EPPLEY   MOCLDY    60  53  77 N3        29.92S
6HR MIN TEMP:  57; 6HR MAX TEMP:  70;

BEATRICE       CLEAR     60  56  86 N13       29.94F
FALLS CITY     CLEAR     59  57  93 NW7       29.92R
6HR MIN TEMP:  59; 6HR MAX TEMP:  71;

NEBRASKA CITY  PTCLDY    61  53  76 NW3       29.93S
PLATTSMOUTH    CLEAR     61  55  82 NW6       29.92F
$$

NEZ044-045-051>053-067-280700-
OMAHA AREA

CITY           SKY/WX    TMP DP  RH WIND       PRES   REMARKS
OMAHA EPPLEY   MOCLDY    60  53  77 N3        29.92S
6HR MIN TEMP:  57; 6HR MAX TEMP:  70;

BLAIR          MOCLDY    61  52  73 NW7       29.93F
FREMONT        CLEAR     58  51  77 CALM      29.96S
MILLARD        PTCLDY    61  55  79 NW6       29.93S
OFFUTT AFB     PTCLDY    57  54  89 NW6       29.91F
PLATTSMOUTH    CLEAR     61  55  82 NW6       29.92F
WAHOO          FAIR      58  50  74 NW7       29.95S
$$




USA.gov is the U.S. government's official web portal to all federal, state and local government web resources and services.